This is the latest recevied weather packets stored in our database for station/object KL1SF-7. If no packets are shown the sender has not sent any weather packets the latest 10 day(s).
| Time | Temp. | Humidity | Pressure | Rain* | Wind** | Luminosity | Snow |
|---|---|---|---|---|---|---|---|
| 1777548210 | 1.67° C | 46% | 1017 hPa | 0 mm | - | - | - |
| 1777547620 | 2.22° C | 45% | 1017 hPa | 0 mm | - | - | - |
| 1777547016 | 2.78° C | 46% | 1016.6 hPa | 0 mm | - | - | - |
| 1777546417 | 3.33° C | 42% | 1017 hPa | 0 mm | - | - | - |
| 1777545807 | 3.89° C | 41% | 1017 hPa | 0 mm | - | - | - |
| 1777545219 | 3.89° C | 40% | 1017 hPa | 0 mm | - | - | - |
| 1777544619 | 4.44° C | 39% | 1016.9 hPa | 0 mm | - | - | - |
| 1777544009 | 4.44° C | 39% | 1016.9 hPa | 0 mm | - | - | - |
| 1777543422 | 4.44° C | 40% | 1016.8 hPa | 0 mm | - | - | - |
| 1777542806 | 4.44° C | 38% | 1016.2 hPa | 0 mm | - | - | - |
| 1777542216 | 4.44° C | 38% | 1016.2 hPa | 0 mm | - | - | - |
| 1777541629 | 5° C | 37% | 1016.3 hPa | 0 mm | - | - | - |
| 1777541014 | 5° C | 36% | 1016.4 hPa | 0 mm | - | - | - |
| 1777540424 | 5° C | 35% | 1016.4 hPa | 0 mm | - | - | - |
| 1777539816 | 5.56° C | 35% | 1016.7 hPa | 0 mm | - | - | - |
| 1777539222 | 5.56° C | 34% | 1017.2 hPa | 0 mm | - | - | - |
| 1777538612 | 6.11° C | 33% | 1017.2 hPa | 0 mm | - | - | - |
| 1777538024 | 5.56° C | 33% | 1017.2 hPa | 0 mm | - | - | - |
| 1777537409 | 5.56° C | 33% | 1017.7 hPa | 0 mm | - | - | - |
| 1777536819 | 6.11° C | 32% | 1017.7 hPa | 0 mm | - | - | - |
| 1777536231 | 6.11° C | 31% | 1017.4 hPa | 0 mm | - | - | - |
| 1777535616 | 6.67° C | 30% | 1017.7 hPa | 0 mm | - | - | - |
| 1777535005 | 7.22° C | 29% | 1017.7 hPa | 0 mm | - | - | - |
| 1777534418 | 7.78° C | 27% | 1017.2 hPa | 0 mm | - | - | - |
| 1777533819 | 8.33° C | 27% | 1017.2 hPa | 0 mm | - | - | - |
* Rain since midnight (hover to see other rain measurements)
** Current wind speed in m/s (hover to see current wind gust speed)